Wind_Speed
64 62 61 60 59 60 60 59 57 55 53 51 51 52 49 47 48 43 32 30 34 31 26 22 20 21 22 21 22 23 23 22 20 21 22 23 24 25 27 27 26 26 27 26 25 23 19 18 18 20 23 23 22 21 21 22 22 22 22 22 20 19 18 15 13 14 15 15 15 15 15 16 15 15 16 19 22 25 26 26 26 26 25 24 23 23 24
66 65 64 62 61 61 60 59 58 57 55 53 52 52 49 48 49 43 36 37 38 33 29 24 21 23 25 25 26 27 26 24 22 22 23 23 23 24 26 27 26 27 28 27 25 23 20 18 19 21 23 23 23 22 21 21 20 19 20 20 18 17 17 15 15 17 17 17 18 18 17 17 17 17 18 18 20 22 23 25 26 26 25 24 24 24 25
69 67 67 65 63 63 62 60 59 58 56 55 54 54 53 51 51 46 41 43 41 34 29 26 23 24 27 28 29 30 29 27 25 25 25 25 25 26 26 27 27 27 27 26 24 23 21 19 20 22 24 25 25 24 22 22 20 20 20 18 16 15 15 16 19 20 19 19 19 19 19 18 18 19 20 20 20 21 22 24 26 26 26 24 23 25 26
71 69 69 68 66 65 64 61 59 58 58 58 57 56 56 55 53 48 46 47 43 33 27 26 25 25 27 28 30 31 31 30 29 28 28 28 28 27 27 28 28 27 27 26 23 20 19 19 20 21 24 26 27 27 26 24 23 23 22 20 17 15 15 18 21 20 19 19 20 20 20 20 20 21 21 21 21 21 22 23 24 26 26 25 24 25 26
74 71 71 70 68 67 65 61 60 60 59 59 58 58 57 56 54 52 51 49 40 30 28 29 28 28 29 29 30 31 32 33 33 31 29 30 29 28 28 29 30 28 27 27 25 21 19 20 19 18 21 24 26 27 27 27 27 26 24 23 21 18 17 19 20 19 18 18 19 20 21 22 23 24 23 21 21 21 21 22 23 24 25 25 25 26 27
76 74 73 72 72 70 66 63 62 60 60 60 60 59 58 57 55 54 52 48 40 35 34 34 31 30 32 32 32 33 34 36 36 33 31 32 31 30 30 31 31 30 28 27 27 24 22 22 21 20 20 22 25 30 31 31 31 29 25 25 24 21 20 20 20 20 19 18 19 22 24 25 26 26 25 23 22 22 21 21 21 22 24 24 24 26 28
79 76 75 75 75 70 67 66 64 61 61 62 61 60 59 57 57 56 54 51 46 41 39 37 34 33 35 36 35 35 36 37 37 36 33 33 33 32 32 32 32 30 28 27 27 25 24 24 24 24 23 22 25 29 31 31 31 29 26 25 24 23 22 22 22 22 21 20 21 23 25 27 28 28 27 25 24 23 22 21 21 21 23 24 24 26 28
81 79 77 78 76 72 70 70 67 63 62 61 61 61 59 58 58 58 57 55 50 45 42 40 37 37 39 39 38 37 36 37 37 37 35 34 35 35 34 34 32 30 29 29 29 27 26 27 26 25 24 24 25 27 28 28 27 26 25 25 25 24 24 24 24 24 23 23 23 24 25 26 27 28 29 28 26 25 24 23 22 21 23 24 24 26 29
83 81 80 80 78 75 73 72 70 67 63 61 62 63 60 58 59 59 58 55 52 49 47 43 41 42 43 42 41 39 37 36 37 38 37 36 36 36 36 36 34 32 31 32 32 31 30 29 28 26 26 27 27 28 29 28 26 26 26 26 26 26 26 26 25 25 26 27 27 27 27 27 28 28 29 30 29 28 26 24 23 23 23 25 25 27 30
84 82 82 82 81 78 75 73 73 71 66 62 63 64 61 57 58 59 57 55 53 51 50 47 45 45 46 45 44 41 39 37 36 37 38 38 37 37 37 38 36 34 34 34 34 34 34 32 31 29 28 28 29 30 31 30 29 28 27 26 27 28 28 29 28 26 27 30 31 31 31 31 31 31 32 31 31 31 28 26 26 25 25 26 27 28 30
84 84 84 84 83 81 77 75 75 74 70 65 62 64 63 58 57 58 57 54 53 52 52 50 49 49 49 48 45 42 41 39 38 37 39 39 38 38 38 39 39 37 37 38 38 38 38 38 36 33 31 29 29 30 31 31 30 29 27 27 29 29 29 31 30 28 30 34 36 35 34 35 35 35 35 34 35 35 32 29 29 29 28 27 28 29 31
85 85 86 85 84 82 78 77 76 75 74 69 63 64 65 60 57 58 56 53 52 52 53 52 51 50 49 47 45 43 42 41 40 39 39 39 39 39 39 40 40 39 39 40 40 40 40 40 39 37 34 32 31 31 31 30 30 30 28 28 30 30 31 32 33 32 34 37 38 37 36 37 37 36 35 35 36 37 36 32 31 32 31 30 30 30 32
86 85 86 86 85 82 78 76 76 75 76 73 67 65 64 60 57 56 55 52 51 51 52 52 51 50 47 46 46 45 42 41 41 41 41 40 40 40 41 41 41 41 41 40 40 41 41 41 41 40 38 37 36 35 34 33 32 31 30 30 31 32 34 36 36 36 37 38 38 38 38 39 40 37 35 34 35 37 38 36 35 35 34 34 33 33 33
85 85 85 86 85 83 78 76 75 75 75 75 71 66 63 60 57 55 54 52 51 50 51 51 51 49 47 46 46 45 43 41 40 40 41 42 42 42 43 44 44 43 43 43 42 42 42 42 42 42 42 40 39 38 38 36 34 33 33 34 35 36 38 39 38 38 38 39 39 38 38 40 40 39 38 38 39 40 40 39 39 39 37 36 37 37 36
85 85 86 86 87 84 78 74 74 75 75 75 73 67 62 59 56 54 52 51 49 49 49 50 50 49 48 47 46 45 44 42 40 40 41 42 44 44 44 46 47 46 46 46 45 44 43 43 43 44 44 42 41 40 39 37 35 35 35 36 37 38 39 39 39 39 39 40 40 40 40 41 42 44 45 44 42 43 44 43 43 43 41 40 41 41 40
86 86 88 90 89 83 74 68 69 72 74 74 73 68 62 58 55 53 52 51 49 48 47 48 48 48 47 47 46 45 45 44 42 41 41 42 44 45 45 47 49 49 49 49 48 47 46 45 45 45 45 44 44 43 41 40 39 38 38 38 39 40 40 40 41 41 41 41 42 42 42 43 44 47 50 50 47 44 44 44 45 46 44 43 44 44 43
87 87 88 88 84 75 67 65 66 68 70 70 70 67 63 59 55 53 52 51 50 49 48 48 48 48 47 47 47 46 45 45 44 43 42 42 42 44 45 46 48 50 50 50 50 50 49 48 47 47 47 47 47 46 45 44 44 43 43 43 43 44 44 44 44 44 43 44 45 46 46 47 47 48 50 52 52 51 50 48 47 46 46 46 47 47 46
83 84 84 84 80 70 64 64 64 63 63 64 64 63 61 59 56 53 52 51 52 52 52 51 51 50 49 48 48 48 46 45 44 44 43 43 42 43 43 44 46 49 50 51 51 51 51 51 50 50 51 50 50 50 49 49 49 48 48 48 47 47 47 46 47 47 47 47 48 49 49 50 51 50 51 52 52 52 54 55 53 49 47 46 48 49 49
74 75 78 82 80 71 63 61 61 59 59 57 56 56 56 54 53 54 53 51 52 53 55 55 54 52 52 50 50 51 50 48 46 45 44 44 43 42 42 42 43 44 46 48 49 50 50 51 51 51 52 52 53 53 53 53 53 52 50 49 48 46 45 45 45 47 48 48 49 50 51 52 53 53 53 54 54 53 54 56 56 55 53 50 49 50 51
65 66 70 76 79 73 64 62 61 57 54 53 51 52 54 52 51 53 55 54 55 56 56 57 56 55 54 54 53 54 53 51 49 46 45 44 44 43 42 41 41 41 43 45 47 47 48 48 48 48 49 49 50 51 51 51 50 48 47 46 45 44 43 44 45 47 48 49 50 51 53 54 56 57 57 58 58 58 56 56 56 57 57 54 51 50 51
60 60 62 70 76 75 68 65 64 58 52 53 53 53 55 56 55 57 57 57 58 59 58 58 57 56 57 58 58 58 57 55 52 50 47 46 46 45 44 43 41 41 43 45 46 46 45 45 45 45 45 45 45 45 46 46 45 45 45 45 46 46 46 47 48 49 50 51 52 53 55 56 57 59 60 60 61 61 61 59 58 58 60 60 57 55 57
57 57 57 60 68 74 71 66 65 62 56 55 58 56 56 58 61 61 60 60 61 61 60 59 56 55 59 63 63 62 61 59 56 54 52 51 49 48 48 47 44 43 44 46 47 47 45 44 44 44 44 44 45 45 46 46 47 47 47 47 47 48 49 50 51 52 52 53 54 55 56 57 58 58 59 60 61 61 60 60 59 59 60 62 62 61 63
55 55 55 51 55 68 73 67 64 65 61 57 58 57 56 58 60 58 58 61 64 63 62 60 55 53 58 64 65 64 63 62 59 57 55 54 53 52 51 50 47 44 43 45 47 47 46 45 45 45 45 46 47 47 47 48 48 48 48 48 48 48 49 51 52 53 53 54 55 56 57 58 58 59 60 61 62 63 63 64 64 63 62 61 60 61 66
54 54 53 49 50 62 71 68 64 65 65 62 60 58 56 56 57 55 56 59 62 61 59 57 54 52 54 60 63 64 63 61 60 59 59 58 56 54 52 51 49 46 44 43 44 46 47 47 47 48 48 48 48 49 48 49 49 49 50 49 49 49 49 49 50 51 52 53 55 56 57 57 59 61 62 63 65 66 67 69 70 69 69 66 61 61 67
52 54 51 48 50 59 69 70 65 63 65 66 64 62 58 55 53 53 54 55 57 58 59 58 56 53 50 53 59 62 60 58 59 61 62 61 58 55 53 52 51 50 47 45 44 45 46 47 48 50 51 52 52 51 50 50 51 51 51 50 50 49 49 49 50 51 52 53 54 55 56 58 61 63 65 67 68 69 71 73 74 74 74 72 68 67 70
48 54 54 51 51 58 67 71 67 64 66 68 66 64 63 59 53 50 51 53 56 57 58 59 61 57 50 49 53 55 53 54 59 62 64 63 60 58 56 55 54 54 52 51 49 48 48 48 49 51 54 55 55 54 53 52 52 51 51 50 50 49 49 50 51 52 52 53 54 55 57 59 61 64 68 71 73 74 75 76 76 76 75 74 73 73 73
41 48 54 53 52 59 69 72 69 65 65 66 65 64 64 63 56 45 40 46 55 59 58 59 59 56 49 47 48 49 49 52 56 60 63 64 62 61 59 59 59 58 58 57 56 55 54 53 53 54 55 57 57 56 55 54 53 52 51 49 49 49 50 50 50 50 51 52 53 55 58 59 62 66 70 73 77 81 82 80 79 79 78 77 76 76 75
36 42 50 51 50 56 67 75 74 68 61 58 62 66 65 63 59 46 31 29 40 51 55 53 48 44 44 46 47 47 47 49 51 53 57 60 62 62 62 62 61 61 61 61 60 58 57 57 57 57 57 57 57 56 55 54 53 50 48 48 48 48 48 47 47 48 49 50 52 54 57 59 61 62 63 66 69 73 78 80 79 77 77 78 79 81 78
31 37 44 47 46 49 59 70 76 73 61 51 55 63 65 63 62 56 41 27 26 34 41 42 40 39 41 46 48 47 44 43 45 48 51 53 55 56 57 57 57 58 58 59 59 58 58 59 59 57 55 55 55 54 52 50 48 46 45 45 45 45 45 45 45 46 47 48 50 53 55 58 59 59 58 59 60 61 68 74 74 73 75 79 81 80 78
27 34 42 46 44 43 50 62 72 73 62 47 44 53 62 60 55 52 47 36 28 27 30 32 37 40 40 40 42 42 40 40 43 45 47 49 51 53 54 56 57 57 56 56 56 55 54 54 52 50 48 48 48 48 46 45 43 42 42 42 42 42 42 42 43 45 46 47 49 51 52 53 56 57 57 57 56 54 53 55 56 57 60 70 77 76 72
26 31 39 45 45 42 43 51 63 69 65 52 40 41 50 51 44 39 39 36 31 28 27 27 30 35 36 38 39 39 40 41 42 42 43 44 45 46 49 52 56 57 56 54 52 49 47 46 46 45 44 43 42 41 41 41 41 41 41 41 40 40 41 41 42 43 44 45 46 47 47 48 50 51 51 51 49 42 32 25 34 44 42 42 53 60 61
24 28 33 38 42 43 42 42 49 58 64 62 50 39 36 37 33 30 30 32 32 31 30 30 31 32 34 37 39 39 40 41 40 38 37 36 34 33 34 36 41 45 49 49 48 46 44 44 44 44 43 41 39 38 39 40 40 41 41 40 40 40 40 41 41 41 41 42 43 42 40 39 39 37 38 39 38 33 22 7 24 37 33 28 36 48 56
21 25 28 29 33 39 40 36 36 41 49 57 58 50 37 30 27 25 26 30 34 35 35 37 39 40 40 40 39 38 38 38 37 36 35 34 33 33 33 33 35 37 40 43 44 43 42 42 41 40 40 39 38 37 38 38 39 40 40 39 39 39 40 40 40 39 38 38 37 35 33 32 29 26 25 27 26 24 22 11 16 32 36 37 42 49 55
20 22 24 26 29 33 33 30 28 30 33 41 52 55 45 35 30 27 25 29 35 37 38 40 41 43 43 42 38 36 36 38 38 37 37 38 37 37 38 38 38 38 39 40 41 41 41 41 40 39 38 37 37 37 38 39 40 40 40 39 38 39 40 40 39 38 37 36 34 30 28 28 27 23 20 20 19 15 14 16 19 24 31 39 46 51 54
18 20 23 25 27 28 28 25 24 25 26 30 41 50 49 43 37 31 27 28 32 34 35 37 38 38 38 38 36 37 39 40 40 41 42 41 39 38 38 39 39 40 40 40 39 39 40 41 39 38 37 37 37 38 39 40 41 41 40 39 38 38 39 39 38 38 37 35 33 30 27 27 28 26 21 16 13 9 6 7 11 14 17 21 28 34 38
15 18 22 23 23 23 24 23 21 21 21 24 33 43 48 45 40 34 30 30 32 32 33 34 36 37 38 38 38 40 43 45 46 46 45 42 40 38 36 37 38 39 39 39 37 37 38 39 38 37 36 36 38 38 39 40 40 40 39 37 37 37 38 38 38 36 35 34 33 30 27 25 25 26 24 19 15 12 9 7 6 6 7 8 10 12 15
18 18 19 20 22 23 24 23 21 20 20 21 27 35 40 41 39 36 33 32 32 33 33 34 35 37 38 40 43 46 49 51 50 48 44 40 38 35 34 34 35 36 37 37 36 35 35 35 36 36 36 37 38 38 38 38 38 38 37 36 36 36 37 37 36 34 33 32 30 27 26 25 24 23 23 21 19 16 15 13 11 10 10 11 12 13 14
22 23 21 17 17 21 24 24 22 20 19 20 24 28 32 34 35 34 33 32 33 34 35 36 38 40 42 44 47 49 50 48 44 39 35 33 32 32 33 33 34 35 35 34 34 34 34 34 35 36 37 37 37 37 37 37 36 35 34 34 35 36 36 35 34 31 27 27 26 26 25 25 26 25 23 22 21 20 19 18 17 16 16 16 16 17 18
23 29 30 24 18 18 20 22 23 21 19 20 22 24 26 28 30 31 31 31 31 32 33 35 37 39 41 43 43 42 40 36 32 28 27 27 27 29 31 33 33 33 33 32 33 34 35 35 36 36 36 36 36 36 36 35 34 32 32 31 33 34 35 33 32 31 29 28 28 28 27 25 26 27 27 26 24 23 21 19 20 21 22 22 22 22 23
22 26 31 31 29 26 24 22 21 21 20 21 22 23 25 26 27 27 28 28 28 30 31 31 31 31 32 33 32 30 29 26 24 23 23 24 25 27 30 31 31 31 31 31 33 34 35 36 37 36 36 36 35 35 35 34 33 31 30 29 29 31 32 32 32 33 33 32 30 29 28 27 28 28 27 26 25 25 23 22 24 26 26 26 26 26 26
25 25 27 30 31 31 30 28 25 23 21 21 22 23 25 26 27 27 28 29 31 32 32 30 27 25 24 24 23 23 23 22 22 22 23 24 25 26 27 27 27 27 28 29 30 32 33 34 35 35 34 34 35 35 34 34 33 31 29 29 28 28 29 31 32 32 33 33 31 29 28 27 27 25 24 23 24 25 24 24 25 26 27 27 27 28 28
25 25 26 27 29 31 31 32 31 30 27 25 25 26 27 28 29 30 31 31 31 30 28 26 24 22 21 21 21 22 22 23 23 24 25 25 25 26 26 27 26 26 26 26 26 27 28 29 29 29 29 30 31 31 32 32 31 31 30 29 29 28 28 29 29 30 31 31 31 30 29 28 27 26 25 24 25 25 23 22 23 24 25 25 25 25 26
20 24 23 18 17 20 23 26 29 30 29 28 27 27 26 26 27 29 30 30 30 29 27 26 24 23 23 23 23 24 24 25 26 27 27 27 26 26 27 27 27 26 27 27 27 26 26 26 25 25 25 25 26 27 27 27 28 29 29 29 29 28 29 29 29 29 29 29 28 28 30 32 33 33 32 31 29 26 24 22 22 23 23 24 24 24 24
15 18 15 10 8 10 13 16 18 21 21 21 21 21 21 21 23 24 26 27 28 28 27 27 26 25 25 26 26 27 27 28 29 29 30 29 29 28 28 28 29 29 29 29 30 30 29 29 28 26 25 25 25 25 25 25 25 26 26 27 27 27 27 27 28 28 29 29 28 27 27 29 32 35 37 36 34 30 27 26 25 24 23 23 24 25 24
14 15 13 10 9 10 10 10 11 13 15 16 17 18 19 19 20 21 22 23 25 26 26 27 27 27 28 28 29 29 30 31 32 32 32 32 32 32 32 31 31 31 31 32 32 32 32 31 30 29 28 27 26 26 25 25 25 25 25 26 26 26 26 26 27 27 28 28 27 26 26 27 29 32 34 33 30 28 27 27 25 25 26 26 27 28 28
12 13 12 11 10 9 9 9 9 10 12 13 14 16 17 18 19 20 21 22 23 24 24 25 26 26 27 28 30 31 32 32 33 33 33 33 34 34 33 33 32 32 32 32 32 32 31 31 30 29 28 26 26 26 26 26 26 26 26 27 27 27 27 27 27 27 27 27 27 27 27 28 29 30 31 29 27 26 26 25 25 25 27 27 27 28 29
10 9 9 9 9 9 9 9 9 10 11 12 12 13 14 15 16 17 18 18 19 20 21 21 22 23 25 26 28 29 30 31 31 31 32 32 32 32 32 32 31 31 30 30 29 29 30 29 28 28 27 26 26 26 27 27 27 27 28 28 29 29 29 29 29 28 28 28 28 30 31 32 31 30 29 29 28 27 27 27 27 28 29 28 27 28 29
10 10 9 8 8 7 6 6 6 7 8 9 9 10 10 11 11 12 13 13 14 15 15 17 18 19 20 22 23 25 26 26 27 27 27 27 27 27 27 28 28 28 28 27 27 27 27 27 27 27 27 27 27 28 28 29 30 30 30 30 30 31 31 31 31 30 30 31 31 32 33 35 35 34 33 31 30 29 29 28 29 32 35 36 35 34 34
9 9 9 9 8 8 7 6 4 3 2 2 2 3 4 5 6 7 9 10 10 11 12 13 14 16 17 18 19 20 20 20 21 21 21 21 22 22 22 23 23 24 24 24 24 24 24 24 25 25 25 26 27 28 28 29 30 31 32 32 32 32 32 32 32 32 32 33 33 34 35 35 36 36 36 34 32 32 33 34 35 36 38 39 39 38 39
8 8 8 7 7 6 5 4 3 2 1 1 1 2 2 3 4 6 7 8 9 10 11 12 13 14 15 16 17 17 18 19 19 20 20 21 21 21 22 22 22 22 23 23 23 23 23 24 24 24 25 25 26 27 28 28 29 30 31 32 33 33 34 34 34 34 34 34 35 36 36 37 37 37 37 37 36 36 37 40 42 43 44 44 44 44 44
8 8 8 7 7 6 5 5 4 4 5 5 5 5 6 6 7 8 9 10 10 11 11 12 13 14 15 15 16 17 18 19 20 21 22 22 23 23 23 24 24 24 24 25 25 25 26 26 26 26 27 27 27 28 29 30 30 31 32 33 33 34 34 35 35 35 36 36 36 36 37 37 38 38 38 39 39 39 40 41 43 45 47 48 49 48 48
11 10 9 8 8 8 9 9 9 9 9 9 9 9 9 10 10 11 11 12 13 13 14 14 15 16 16 17 18 19 20 20 21 22 23 23 24 24 24 25 25 25 25 25 26 26 26 27 28 29 29 29 29 30 30 31 31 32 33 33 33 34 35 35 36 37 37 38 39 39 39 39 39 40 40 40 40 41 41 42 43 44 46 47 48 48 48
Wind_Direction
233 232 231 230 231 232 233 235 237 236 235 235 236 240 242 243 245 247 248 250 251 251 244 228 216 220 227 227 225 226 228 225 224 232 235 232 227 224 227 229 228 230 229 224 224 225 223 227 235 237 236 235 234 231 228 225 227 230 237 245 249 250 253 258 267 273 272 273 281 287 286 281 280 283 285 279 268 259 251 244 241 240 238 238 238 238 239
233 233 232 231 231 232 234 235 236 237 237 237 238 239 240 241 245 246 244 245 246 246 245 239 224 222 227 229 228 229 231 229 225 228 233 232 226 221 224 230 231 231 230 226 224 225 223 223 231 238 241 242 241 239 236 235 235 238 242 248 252 255 259 266 269 270 268 269 274 284 292 291 286 282 280 280 277 271 264 255 251 251 250 246 241 239 239
234 233 233 232 231 232 234 234 236 237 238 239 238 238 237 238 241 241 240 242 243 241 243 244 234 227 227 228 230 232 234 232 227 225 227 226 224 220 221 226 229 230 233 235 233 230 227 226 230 237 242 244 243 240 238 239 242 245 247 249 252 257 263 268 268 268 268 269 272 279 287 292 293 289 283 280 279 277 274 270 267 267 267 261 250 242 240
233 233 234 234 233 233 234 234 235 236 238 238 238 238 239 239 240 240 239 240 240 240 244 248 244 238 232 228 227 231 234 234 230 226 226 226 224 222 221 223 227 229 231 235 237 234 231 233 236 240 243 245 244 241 238 239 241 245 248 249 251 254 258 262 264 265 266 268 270 275 282 287 291 291 289 288 286 285 282 279 276 276 277 274 260 247 242
233 232 233 234 234 233 234 234 233 233 235 238 238 238 240 241 242 242 242 242 241 241 243 243 241 240 238 231 226 227 231 234 233 228 226 227 226 224 223 224 227 229 230 231 235 237 236 234 236 243 249 251 252 250 245 242 240 241 243 247 250 251 251 254 258 262 266 269 270 274 279 283 285 286 289 293 295 294 290 285 283 281 281 278 266 253 247
232 231 232 234 234 233 233 232 231 232 236 237 237 238 239 241 243 245 246 246 241 236 236 237 236 236 238 236 230 225 226 231 235 232 226 226 227 225 224 226 228 230 231 230 232 235 235 230 227 232 242 248 250 249 246 244 244 243 242 244 248 249 248 250 255 260 265 270 271 271 273 277 280 281 284 289 292 295 296 295 294 288 282 278 270 259 252
231 230 230 232 234 234 233 233 231 231 233 234 236 238 239 240 243 244 245 244 240 234 233 235 235 233 235 236 233 229 226 228 234 236 230 226 227 226 226 228 230 232 233 232 230 229 230 230 228 228 233 239 242 244 246 247 249 251 249 246 246 247 247 248 251 256 262 267 269 268 268 270 274 276 278 282 286 290 294 297 299 292 283 277 270 261 254
231 230 230 231 234 234 234 234 233 230 229 232 236 238 238 239 241 241 241 242 240 236 233 233 234 234 235 235 235 233 230 226 228 235 235 230 228 228 228 229 232 233 233 233 231 229 227 229 229 227 230 235 238 241 246 249 250 252 251 247 245 247 249 250 250 252 256 260 263 266 267 268 271 274 275 276 280 283 286 290 293 292 286 281 274 264 257
231 231 231 232 234 234 233 234 235 232 230 230 235 237 237 237 239 241 241 242 241 239 235 231 231 235 237 239 238 236 234 228 225 229 234 233 231 231 230 231 233 233 233 234 235 236 235 234 233 228 227 230 233 235 240 245 246 246 244 244 244 247 251 253 250 250 253 255 258 263 266 269 273 274 273 271 272 275 279 283 286 287 286 283 277 267 259
230 231 232 232 233 233 232 234 235 235 232 229 233 237 237 235 238 241 241 241 241 241 239 234 231 233 237 241 242 239 236 232 226 225 230 233 233 232 232 234 234 234 234 236 239 242 245 245 242 236 232 233 233 233 236 242 247 247 246 247 247 247 250 253 251 249 249 251 253 256 260 262 264 265 266 266 266 268 271 274 278 281 282 280 276 269 261
228 230 232 233 233 233 232 232 234 236 234 230 230 235 236 234 236 239 240 240 240 240 240 237 234 234 237 241 243 242 240 236 231 227 228 231 232 232 231 233 236 236 235 237 240 242 245 246 245 242 241 241 239 240 243 247 250 252 252 250 248 247 250 255 255 251 248 251 254 258 260 259 258 256 256 256 259 260 262 266 271 274 276 277 277 273 264
227 229 232 233 234 234 233 233 234 235 236 233 229 231 235 234 234 237 238 238 238 238 239 239 238 238 240 242 243 243 242 240 236 232 231 232 232 231 229 231 236 238 235 235 237 241 244 246 246 246 248 249 247 249 252 251 251 256 257 252 247 246 248 252 254 252 252 255 260 264 267 268 267 263 256 251 253 255 255 258 263 266 269 272 275 274 267
225 228 231 233 234 234 234 234 234 235 236 235 231 230 234 234 233 235 238 238 237 238 239 240 241 241 241 242 244 245 244 242 239 236 234 233 232 231 228 228 232 236 237 234 234 237 241 244 246 248 251 252 252 254 256 256 257 261 262 255 248 247 249 250 252 255 257 261 264 269 274 276 276 273 263 254 253 255 254 253 254 259 264 267 270 271 268
223 226 229 232 233 234 234 235 235 236 236 237 234 232 233 233 232 234 236 237 238 238 239 240 241 241 241 242 244 246 245 242 240 238 236 234 233 231 229 227 228 232 236 237 237 237 239 241 245 248 251 252 253 255 258 261 264 265 262 256 252 253 255 256 258 262 266 268 269 272 277 279 279 277 271 260 253 253 254 252 251 252 256 260 264 265 266
221 223 226 229 231 232 233 234 235 236 236 237 237 234 232 232 232 233 234 236 237 238 239 240 241 242 242 242 243 244 244 242 239 237 236 235 234 232 230 228 228 230 233 236 239 240 241 242 245 249 252 254 255 257 260 261 263 261 258 256 255 256 258 261 264 267 269 272 272 272 274 276 278 281 281 275 263 254 251 252 252 252 251 253 256 260 263
220 222 225 229 231 231 231 232 234 236 237 237 237 237 234 232 232 232 233 234 236 237 239 240 241 242 241 241 241 241 241 241 240 237 236 236 236 235 233 232 231 232 233 235 237 239 241 243 245 248 252 254 255 258 260 262 261 260 259 259 259 260 262 264 266 269 271 272 273 273 274 275 276 279 283 285 281 273 264 258 254 254 254 253 253 256 259
221 221 224 227 229 228 229 231 233 236 238 239 239 239 237 235 232 232 233 234 235 237 238 239 240 240 239 239 240 240 240 240 240 239 237 235 236 237 237 237 236 236 236 237 237 239 240 242 244 247 250 252 254 256 258 260 262 263 264 264 264 265 267 267 269 270 271 271 271 273 274 274 275 276 277 280 283 285 282 275 266 261 260 258 257 257 257
223 223 223 224 224 224 226 229 232 234 237 239 240 241 241 239 236 234 234 235 236 237 237 237 239 240 241 240 240 242 243 242 239 239 238 236 235 237 238 240 240 239 239 240 240 240 241 242 243 245 247 250 253 254 256 258 260 262 264 264 265 266 267 268 268 267 267 268 269 270 271 273 274 274 272 272 274 276 279 281 279 273 268 264 262 259 257
223 224 224 223 221 221 222 226 229 232 235 237 239 240 240 240 238 236 234 233 233 235 236 236 236 237 240 241 241 242 244 244 241 239 238 238 238 237 238 239 241 241 241 242 243 244 245 246 246 246 247 249 251 254 255 257 259 261 262 263 265 266 266 266 266 266 267 268 269 270 271 273 274 273 271 270 270 270 272 276 278 277 274 272 269 264 260
221 223 224 223 220 218 219 223 226 229 231 231 232 235 236 236 236 236 235 234 232 231 232 233 233 234 236 239 241 241 242 243 242 241 241 242 242 240 237 237 238 241 243 245 246 248 249 250 251 251 252 252 253 254 256 258 260 262 264 266 267 268 268 267 267 268 268 269 269 271 271 271 272 272 271 271 271 271 271 271 271 271 271 271 270 266 261
216 218 222 223 219 215 216 220 223 224 226 223 223 229 236 237 236 235 234 233 232 231 232 233 235 237 238 239 240 240 240 241 242 243 245 247 247 245 242 238 237 240 243 245 247 248 248 249 250 251 252 253 254 254 256 258 260 263 265 267 267 266 266 267 267 268 268 269 269 270 270 270 270 271 271 271 271 271 271 269 267 265 263 262 261 259 257
211 213 217 222 220 215 214 216 219 221 222 222 223 228 232 232 229 228 229 230 230 231 233 235 239 242 241 237 235 236 237 237 239 242 246 249 251 250 248 246 246 245 244 244 246 247 247 247 248 249 249 250 251 253 255 257 258 260 261 262 262 261 261 262 263 264 265 266 267 268 269 270 271 271 272 272 272 271 270 268 266 264 262 261 261 260 259
207 210 214 219 219 214 211 213 216 218 219 221 223 225 224 220 217 217 219 221 224 227 229 232 238 241 237 231 228 230 232 234 236 239 244 247 250 250 250 251 253 254 251 247 245 245 247 249 251 252 252 253 254 255 257 259 260 261 262 263 262 261 260 260 260 261 262 264 265 267 269 271 272 271 270 270 269 268 267 266 264 263 261 260 261 262 261
203 205 210 216 216 211 208 209 212 216 217 218 219 221 220 216 213 212 212 212 216 221 223 227 232 232 225 220 220 222 227 231 234 238 241 244 246 248 249 252 256 258 256 252 248 247 249 251 254 256 258 259 259 259 262 264 266 267 268 268 268 267 266 266 265 265 266 267 269 270 272 273 272 270 268 267 266 265 264 262 261 260 259 257 257 258 258
204 204 205 210 214 211 208 206 208 213 216 216 216 216 216 214 210 211 212 211 212 216 220 224 228 225 216 211 213 216 221 227 232 237 240 242 244 245 247 251 255 257 257 256 255 254 254 256 257 259 261 262 262 263 265 267 269 270 271 270 270 270 270 270 269 269 269 270 271 272 272 272 271 270 270 270 268 266 264 262 260 258 256 255 253 254 256
202 204 202 202 206 209 207 206 207 210 213 214 212 210 212 213 210 208 210 212 213 215 219 222 223 221 215 210 210 213 219 224 230 235 240 242 245 246 247 250 253 256 257 258 259 259 259 260 260 262 263 264 265 265 266 267 269 270 269 269 269 269 270 271 271 271 272 272 272 272 272 271 272 273 273 272 270 268 265 262 260 259 257 255 253 253 254
196 199 199 199 201 202 201 203 206 208 207 207 207 206 209 213 212 206 204 208 211 213 216 217 216 214 213 210 209 212 218 224 229 234 238 242 245 247 248 250 253 255 257 258 260 260 260 260 262 264 266 267 267 267 268 269 269 269 268 266 266 267 269 270 271 272 273 273 274 273 273 274 275 275 275 274 272 269 267 264 261 259 257 255 255 254 252
199 198 197 198 200 200 198 198 203 206 204 200 201 204 208 211 213 211 207 204 205 208 210 212 211 209 208 208 210 213 218 224 229 233 238 241 245 247 250 251 253 255 256 257 259 259 259 259 261 264 266 268 269 269 269 269 269 268 266 265 265 266 268 270 271 272 272 273 273 274 275 276 275 274 277 280 277 272 268 265 260 255 251 249 249 249 247
203 202 197 194 197 201 201 200 201 205 204 197 195 200 206 211 214 215 216 214 209 209 213 218 222 219 212 208 211 214 218 225 232 235 238 241 243 246 248 250 252 253 255 256 258 259 260 262 264 266 267 267 267 268 269 268 268 267 266 264 265 266 268 269 269 270 271 272 274 276 277 276 273 273 281 289 286 278 271 266 260 252 245 240 239 239 239
199 201 201 197 196 200 204 206 207 208 205 196 190 196 204 209 212 213 215 218 219 218 221 227 232 231 224 216 217 221 228 236 240 241 243 245 247 248 249 250 252 254 257 258 260 261 262 263 264 264 264 263 263 265 266 266 266 266 264 263 264 265 266 266 267 269 271 275 277 279 280 280 279 280 286 291 290 287 285 279 270 260 247 235 231 232 232
196 198 202 204 204 202 202 206 211 213 211 205 198 194 199 204 207 208 211 215 218 220 222 226 231 234 232 228 229 234 241 246 249 251 252 253 254 256 256 256 256 258 259 259 260 260 260 260 260 260 260 261 262 263 263 263 263 263 262 262 263 263 264 265 266 270 275 279 281 283 285 285 285 285 286 288 289 295 304 289 261 257 253 235 225 225 226
190 197 201 206 209 210 209 210 213 216 218 216 211 203 199 201 204 206 211 214 217 220 225 230 235 238 237 234 236 241 247 251 252 252 251 252 256 261 264 264 262 260 258 257 257 257 257 258 258 258 259 259 261 262 261 261 261 261 261 262 262 261 263 265 267 272 278 282 284 286 286 286 289 291 292 294 294 299 310 275 207 216 226 222 214 215 219
177 191 201 209 211 212 215 218 219 222 225 224 220 217 215 212 209 211 216 219 221 226 231 236 241 245 246 243 242 244 247 248 246 246 251 257 262 266 270 272 272 268 262 259 258 257 257 258 257 257 257 257 257 259 259 259 260 261 262 263 262 261 263 266 268 272 277 280 282 285 283 283 291 300 304 308 310 308 307 291 191 184 191 198 203 208 214
169 178 192 206 210 209 211 217 220 222 227 228 224 222 222 222 223 226 227 223 224 229 233 236 241 245 246 244 241 239 238 239 243 253 264 270 270 269 269 271 273 272 268 264 261 260 259 258 259 258 257 256 257 258 259 260 261 262 262 263 263 262 263 265 266 269 274 274 275 278 279 278 284 294 301 306 314 317 302 276 244 220 212 212 214 218 223
170 173 182 195 203 206 210 217 222 221 223 228 227 225 224 227 230 234 235 230 228 230 233 236 240 243 244 243 242 238 235 238 248 261 270 272 271 270 269 270 272 272 267 264 264 263 261 260 260 260 259 258 259 260 262 262 263 263 263 263 264 263 263 264 265 267 270 269 267 270 274 275 276 283 289 293 296 304 303 272 255 247 237 228 227 230 233
170 173 178 187 196 207 217 222 224 222 223 228 228 227 227 229 231 235 238 237 234 233 235 238 240 241 241 242 243 239 237 242 253 262 266 269 271 271 270 271 272 269 263 261 263 264 262 260 261 261 262 261 261 261 263 263 264 265 265 264 264 264 263 263 264 265 266 264 262 266 273 275 275 277 282 284 284 283 283 280 274 272 271 268 262 254 246
166 169 175 183 190 199 209 216 218 218 219 223 225 226 228 229 230 233 238 239 236 236 237 236 235 235 236 238 239 240 242 249 256 260 263 266 269 270 270 271 270 265 260 260 263 264 262 260 260 259 259 260 261 261 263 263 264 265 265 263 262 263 263 263 264 265 263 259 259 263 270 275 278 279 280 282 284 284 283 280 274 271 273 275 277 276 273
147 149 153 168 187 194 199 206 211 212 213 216 219 221 224 226 228 232 236 235 234 236 237 235 234 235 237 240 243 246 250 254 257 258 260 263 265 266 268 268 265 263 260 259 259 260 259 257 256 255 255 257 259 260 262 263 264 265 265 264 262 262 262 262 263 262 257 254 258 263 269 275 279 281 282 284 284 282 280 279 275 270 267 266 266 268 268
127 132 134 140 155 169 179 191 201 204 204 207 210 214 219 225 230 234 235 234 235 239 240 238 237 237 239 241 245 247 249 250 251 252 255 257 259 262 264 265 263 262 261 258 257 256 255 253 253 253 253 255 257 259 260 262 263 264 264 264 263 263 263 263 261 256 251 252 258 263 266 274 281 283 283 286 287 284 283 283 281 277 274 270 267 264 261
113 118 121 125 131 135 141 156 174 186 193 200 207 215 221 224 225 226 227 228 230 232 233 233 233 234 234 236 238 239 239 240 242 244 247 250 253 257 260 260 260 260 260 259 257 255 254 253 252 252 252 253 255 256 257 258 259 260 261 261 262 263 262 262 259 255 252 255 261 265 268 274 280 283 284 284 283 282 282 283 282 281 279 277 273 269 264
117 114 114 117 121 126 131 137 147 159 174 186 196 205 212 215 216 217 219 219 219 219 222 225 227 228 226 226 227 230 232 234 236 239 242 246 249 252 254 255 256 257 258 259 259 257 256 255 253 251 251 252 252 253 255 255 256 256 257 256 257 258 258 258 257 254 251 250 253 259 265 270 272 273 275 273 271 273 275 274 273 273 274 273 271 270 267
129 126 122 116 113 117 124 130 135 143 153 162 170 178 188 197 204 210 214 214 214 216 220 224 226 226 225 226 228 231 232 233 235 238 240 243 246 248 248 249 251 251 253 256 257 257 257 256 254 252 251 252 252 253 254 255 256 256 256 254 253 253 254 255 256 256 255 251 247 246 251 256 260 263 265 262 262 266 268 266 264 264 264 264 265 266 264
141 141 137 129 122 125 131 136 140 146 152 157 164 172 180 186 192 199 205 208 211 216 221 224 227 228 230 232 234 236 236 236 237 239 241 242 244 246 248 249 250 250 250 252 253 254 254 253 253 252 251 251 251 252 253 254 255 256 255 255 253 251 251 252 254 255 257 257 253 247 246 248 252 259 264 265 265 265 262 256 253 254 256 259 260 259 255
157 157 159 168 171 161 156 154 155 160 166 171 176 183 189 192 195 198 202 206 211 216 221 226 229 232 234 236 239 240 241 241 242 243 245 246 247 249 251 252 252 251 251 250 251 251 251 251 251 250 250 251 252 254 254 255 256 256 256 256 255 254 253 253 253 253 254 254 253 251 249 249 252 254 255 256 257 256 252 248 247 246 246 247 247 246 247
176 176 178 183 182 175 171 168 165 170 179 185 189 193 199 203 208 211 212 214 216 219 222 225 228 231 233 237 240 242 244 246 246 247 249 250 251 251 252 252 252 251 251 251 251 251 251 251 251 251 252 253 255 257 258 258 258 259 260 260 259 258 257 255 254 253 252 251 249 249 249 250 250 247 242 239 236 235 237 239 240 238 237 238 239 240 243
163 167 169 173 176 178 180 180 177 180 186 192 196 199 202 206 212 217 220 221 223 225 226 228 230 232 234 237 240 242 245 247 248 249 250 252 253 253 254 254 253 252 252 251 251 252 252 253 254 255 256 257 257 259 260 260 260 260 261 261 261 261 261 259 258 256 253 249 247 246 245 244 241 237 234 230 227 227 232 235 233 230 231 236 239 240 241
106 121 133 141 146 152 160 168 177 187 194 200 205 208 209 210 214 218 221 224 226 228 230 233 235 236 238 239 241 243 245 247 249 250 251 253 255 256 257 257 257 257 255 254 253 252 253 254 255 257 258 259 260 261 263 264 264 263 261 261 260 261 260 260 260 259 257 253 248 246 245 245 244 242 240 239 238 240 244 245 241 236 234 236 238 243 247
63 71 79 88 96 105 118 136 153 170 184 194 201 206 208 210 213 216 219 221 223 226 229 231 233 235 238 239 241 244 247 249 251 253 255 257 259 260 261 262 262 262 261 259 258 257 256 256 257 258 259 260 261 262 263 264 264 265 264 262 260 259 258 258 257 256 256 256 254 252 251 252 254 255 256 254 251 247 244 242 240 239 239 238 240 244 250
35 38 42 48 54 57 58 61 67 78 105 153 188 205 214 219 225 228 230 231 231 232 234 235 237 238 240 242 244 246 249 252 254 257 260 262 263 265 266 267 268 268 268 267 266 265 263 262 261 262 262 261 261 262 262 262 262 262 262 262 261 259 258 257 256 254 253 253 253 254 254 255 256 259 260 260 256 250 243 240 242 244 245 246 248 251 254
12 15 18 20 24 26 28 29 28 21 5 334 294 272 257 252 253 252 251 251 250 249 249 250 251 251 252 254 255 256 258 260 261 263 264 266 267 268 269 270 271 272 273 274 274 274 273 272 270 269 267 265 264 263 262 260 259 258 257 258 258 258 257 257 256 255 254 253 252 252 253 254 255 257 258 258 258 255 251 248 249 251 253 255 258 261 262
345 348 348 346 344 339 333 323 309 294 283 275 266 262 259 259 258 257 256 257 258 259 259 259 261 261 262 263 264 264 265 266 267 268 270 271 272 272 273 273 274 274 274 275 275 276 276 276 275 274 272 269 267 266 264 262 261 259 258 257 256 256 257 257 257 257 257 256 256 255 255 255 255 255 255 256 256 257 256 254 254 254 256 258 260 261 262
318 318 317 316 313 309 305 300 295 289 285 282 278 275 274 272 270 269 269 269 268 267 267 266 265 266 267 268 268 268 268 268 268 269 269 269 270 271 271 272 272 272 272 272 272 273 273 273 273 273 273 271 269 267 266 264 263 262 262 261 260 260 259 259 259 258 258 258 258 258 258 257 257 257 257 257 256 256 257 257 257 257 257 258 259 260 261
Height
5739 5744 5748 5751 5754 5757 5759 5763 5768 5772 5776 5780 5781 5781 5785 5789 5788 5791 5803 5806 5803 5807 5813 5818 5822 5823 5823 5824 5825 5825 5827 5829 5830 5832 5833 5835 5837 5839 5841 5842 5845 5846 5848 5849 5849 5850 5851 5853 5854 5857 5858 5860 5861 5863 5864 5865 5867 5869 5870 5871 5873 5874 5875 5876 5877 5878 5878 5879 5879 5879 5880 5880 5880 5880 5880 5879 5879 5880 5881 5883 5884 5885 5887 5888 5889 5890 5891
5731 5736 5740 5745 5748 5751 5754 5759 5762 5766 5771 5775 5777 5779 5782 5784 5784 5790 5799 5798 5797 5803 5809 5813 5818 5819 5819 5821 5821 5821 5823 5825 5827 5828 5830 5832 5834 5836 5838 5839 5842 5844 5845 5846 5847 5848 5849 5850 5852 5854 5856 5858 5859 5861 5862 5863 5865 5867 5868 5869 5870 5871 5872 5874 5875 5876 5876 5877 5877 5878 5878 5879 5879 5879 5878 5878 5878 5879 5880 5881 5882 5883 5885 5886 5887 5888 5889
5722 5728 5732 5737 5741 5745 5748 5753 5758 5762 5765 5769 5772 5774 5776 5778 5779 5786 5792 5791 5792 5801 5806 5809 5813 5815 5816 5817 5817 5818 5820 5821 5823 5825 5826 5829 5830 5832 5834 5836 5838 5840 5842 5844 5845 5846 5847 5848 5850 5852 5854 5855 5857 5858 5860 5861 5863 5864 5865 5867 5868 5869 5871 5872 5872 5873 5874 5874 5875 5876 5876 5877 5877 5877 5877 5877 5877 5878 5879 5879 5880 5881 5882 5884 5885 5885 5886
5715 5721 5723 5728 5735 5739 5743 5749 5754 5757 5759 5762 5766 5768 5771 5773 5776 5782 5785 5784 5789 5800 5805 5806 5809 5810 5812 5813 5815 5816 5816 5817 5819 5820 5822 5825 5827 5828 5831 5833 5835 5837 5839 5841 5843 5844 5846 5847 5848 5850 5851 5853 5854 5855 5857 5859 5860 5861 5862 5864 5865 5867 5869 5869 5869 5870 5871 5872 5872 5873 5874 5874 5875 5875 5875 5875 5876 5876 5877 5877 5878 5879 5880 5881 5882 5882 5883
5707 5713 5715 5721 5727 5731 5738 5745 5748 5750 5753 5757 5760 5763 5766 5769 5773 5777 5778 5781 5791 5799 5801 5800 5803 5805 5807 5809 5811 5812 5813 5813 5814 5816 5819 5821 5823 5826 5828 5830 5832 5834 5836 5838 5840 5842 5843 5845 5846 5848 5849 5850 5851 5853 5855 5856 5856 5857 5859 5861 5863 5864 5866 5866 5867 5867 5868 5869 5870 5871 5871 5871 5872 5872 5872 5873 5874 5874 5875 5875 5875 5876 5877 5878 5879 5879 5880
5698 5704 5709 5714 5717 5724 5733 5738 5741 5746 5750 5751 5753 5757 5761 5765 5769 5772 5776 5781 5788 5793 5793 5794 5797 5800 5802 5804 5806 5807 5808 5809 5810 5812 5815 5817 5820 5822 5824 5826 5828 5830 5833 5835 5836 5838 5840 5842 5844 5845 5845 5847 5848 5849 5851 5851 5852 5854 5856 5858 5860 5862 5863 5863 5864 5865 5865 5866 5867 5868 5868 5868 5868 5869 5870 5871 5871 5872 5872 5872 5872 5873 5874 5874 5875 5876 5877
5689 5696 5702 5704 5708 5720 5728 5729 5734 5742 5743 5743 5747 5752 5757 5761 5764 5767 5771 5775 5781 5785 5787 5790 5792 5794 5796 5797 5800 5802 5803 5805 5807 5809 5811 5813 5816 5818 5820 5822 5824 5827 5829 5831 5833 5835 5837 5838 5840 5841 5842 5843 5845 5845 5846 5847 5849 5851 5853 5855 5856 5858 5859 5860 5861 5862 5862 5863 5864 5864 5865 5865 5865 5866 5867 5868 5869 5869 5869 5870 5870 5870 5870 5870 5872 5873 5873
5680 5688 5693 5695 5703 5715 5719 5720 5728 5733 5734 5739 5744 5747 5753 5757 5758 5760 5764 5769 5774 5779 5782 5785 5787 5788 5789 5791 5794 5797 5799 5802 5804 5806 5808 5810 5811 5814 5816 5818 5820 5823 5826 5828 5829 5831 5832 5833 5835 5836 5838 5840 5841 5842 5843 5844 5846 5848 5850 5851 5853 5854 5855 5857 5858 5859 5859 5860 5860 5861 5861 5861 5862 5862 5863 5864 5865 5866 5866 5867 5867 5867 5867 5867 5868 5869 5870
5673 5680 5684 5689 5698 5706 5710 5715 5721 5724 5729 5737 5739 5741 5748 5753 5753 5754 5759 5764 5769 5773 5777 5780 5782 5782 5784 5786 5789 5792 5795 5798 5800 5803 5804 5806 5808 5810 5812 5814 5817 5819 5822 5824 5826 5827 5828 5830 5831 5833 5834 5836 5837 5839 5839 5840 5842 5844 5845 5847 5849 5850 5851 5853 5854 5855 5856 5856 5856 5857 5857 5857 5858 5859 5860 5861 5861 5862 5863 5863 5863 5864 5864 5864 5864 5865 5865
5667 5672 5676 5682 5688 5695 5704 5710 5712 5715 5724 5731 5733 5736 5743 5748 5749 5750 5754 5759 5764 5769 5772 5775 5777 5777 5778 5781 5784 5788 5791 5793 5796 5799 5801 5802 5804 5806 5808 5810 5813 5815 5818 5820 5822 5824 5825 5827 5828 5830 5831 5832 5833 5834 5835 5836 5838 5840 5841 5843 5845 5846 5847 5848 5848 5850 5852 5852 5852 5852 5852 5853 5854 5855 5855 5856 5857 5858 5858 5859 5860 5860 5860 5860 5860 5861 5861
5660 5664 5668 5673 5679 5688 5698 5703 5705 5709 5715 5724 5730 5731 5735 5743 5745 5746 5749 5754 5759 5763 5766 5769 5771 5772 5774 5777 5780 5784 5787 5789 5792 5795 5797 5799 5801 5803 5804 5806 5808 5811 5814 5816 5818 5820 5821 5823 5825 5826 5827 5828 5829 5830 5832 5833 5835 5836 5838 5840 5841 5842 5843 5843 5843 5845 5846 5846 5846 5847 5848 5848 5849 5849 5850 5851 5852 5852 5853 5855 5856 5856 5856 5856 5856 5857 5858
5654 5658 5661 5666 5672 5682 5691 5696 5700 5704 5708 5717 5724 5724 5729 5738 5741 5741 5745 5750 5754 5757 5760 5763 5766 5768 5771 5775 5777 5779 5782 5785 5788 5790 5792 5795 5797 5799 5801 5802 5804 5807 5809 5811 5814 5815 5817 5819 5820 5821 5823 5824 5825 5827 5829 5830 5831 5832 5835 5836 5836 5836 5838 5838 5838 5840 5841 5841 5841 5842 5843 5844 5843 5843 5843 5844 5845 5846 5848 5849 5850 5851 5851 5852 5852 5853 5853
5649 5651 5654 5659 5667 5677 5685 5689 5695 5700 5703 5708 5714 5719 5726 5734 5736 5738 5742 5746 5749 5752 5754 5758 5761 5764 5767 5770 5772 5774 5778 5781 5783 5786 5788 5790 5792 5794 5796 5798 5800 5802 5804 5806 5809 5811 5812 5814 5815 5817 5818 5820 5821 5823 5824 5825 5827 5829 5831 5831 5831 5831 5832 5833 5834 5835 5836 5837 5837 5837 5837 5838 5838 5838 5838 5839 5840 5841 5842 5843 5844 5845 5846 5847 5847 5848 5848
5642 5646 5651 5654 5660 5670 5678 5683 5689 5694 5696 5700 5708 5717 5723 5727 5731 5735 5739 5741 5744 5747 5749 5753 5757 5759 5763 5765 5767 5770 5773 5775 5778 5781 5783 5785 5787 5789 5792 5794 5795 5797 5799 5801 5803 5805 5807 5809 5810 5812 5813 5815 5817 5818 5819 5821 5824 5825 5826 5826 5826 5827 5827 5828 5830 5831 5832 5832 5833 5833 5833 5832 5832 5833 5834 5834 5835 5835 5836 5837 5838 5840 5841 5841 5841 5842 5843
5637 5641 5643 5645 5652 5665 5674 5678 5682 5687 5690 5696 5705 5713 5717 5721 5727 5732 5735 5737 5740 5742 5745 5748 5751 5754 5757 5760 5762 5765 5767 5770 5773 5775 5777 5780 5782 5784 5786 5788 5790 5792 5794 5795 5797 5800 5802 5804 5805 5806 5807 5809 5811 5813 5815 5817 5818 5819 5820 5821 5821 5822 5823 5824 5825 5826 5827 5828 5828 5828 5829 5828 5827 5827 5827 5828 5829 5830 5830 5831 5832 5833 5834 5835 5835 5836 5837
5629 5632 5635 5639 5650 5664 5670 5673 5677 5681 5686 5693 5701 5707 5712 5718 5724 5728 5731 5733 5735 5737 5740 5743 5746 5749 5752 5754 5757 5760 5762 5765 5767 5770 5772 5775 5777 5779 5781 5783 5785 5787 5788 5790 5792 5794 5796 5799 5801 5802 5803 5805 5807 5808 5810 5811 5811 5812 5814 5815 5816 5817 5818 5819 5820 5821 5822 5823 5823 5823 5824 5824 5823 5822 5821 5821 5822 5823 5825 5826 5826 5827 5828 5829 5829 5829 5831
5621 5626 5632 5640 5651 5662 5666 5669 5673 5678 5683 5689 5696 5702 5708 5714 5719 5724 5727 5730 5731 5733 5736 5738 5740 5743 5746 5749 5752 5755 5757 5760 5762 5765 5767 5770 5772 5775 5776 5778 5780 5782 5783 5785 5787 5789 5791 5793 5795 5797 5798 5800 5802 5804 5805 5806 5806 5807 5809 5810 5811 5812 5813 5814 5815 5816 5816 5817 5817 5817 5818 5818 5818 5818 5817 5815 5815 5816 5817 5819 5820 5822 5823 5823 5824 5824 5825
5617 5623 5629 5637 5648 5657 5663 5666 5670 5675 5680 5686 5692 5698 5704 5708 5714 5719 5723 5725 5727 5729 5731 5733 5735 5737 5740 5744 5747 5749 5752 5754 5757 5760 5762 5765 5768 5770 5772 5774 5775 5776 5778 5780 5782 5784 5786 5788 5790 5792 5793 5795 5797 5798 5800 5801 5802 5803 5804 5805 5806 5807 5808 5809 5809 5809 5810 5810 5811 5811 5812 5811 5812 5813 5812 5811 5811 5811 5810 5810 5811 5813 5815 5817 5817 5818 5818
5612 5618 5624 5633 5643 5652 5658 5662 5667 5673 5679 5684 5689 5694 5698 5702 5708 5712 5716 5719 5722 5724 5725 5728 5730 5732 5735 5738 5741 5744 5746 5748 5751 5754 5757 5760 5763 5766 5768 5769 5771 5772 5774 5775 5777 5779 5781 5782 5784 5787 5788 5790 5791 5792 5794 5795 5796 5797 5798 5799 5800 5801 5802 5803 5803 5803 5804 5804 5804 5805 5805 5805 5805 5805 5805 5805 5805 5806 5806 5805 5804 5805 5806 5808 5809 5810 5811
5605 5612 5620 5628 5637 5647 5653 5658 5664 5671 5676 5682 5686 5688 5692 5697 5700 5704 5708 5712 5714 5716 5718 5721 5724 5726 5729 5732 5735 5738 5741 5743 5746 5749 5752 5756 5759 5761 5764 5766 5767 5768 5770 5771 5772 5774 5775 5777 5779 5781 5782 5784 5785 5787 5788 5789 5789 5790 5791 5792 5793 5794 5795 5796 5796 5797 5797 5798 5798 5798 5797 5797 5797 5797 5797 5797 5797 5798 5800 5800 5800 5798 5798 5799 5800 5802 5802
5600 5607 5615 5622 5631 5641 5648 5654 5662 5669 5672 5676 5680 5683 5687 5691 5693 5696 5700 5704 5707 5710 5712 5715 5719 5722 5724 5727 5730 5733 5736 5739 5742 5744 5748 5751 5754 5757 5759 5761 5763 5765 5766 5766 5768 5769 5771 5773 5774 5775 5777 5778 5779 5781 5782 5782 5783 5784 5785 5786 5787 5788 5789 5789 5790 5790 5791 5791 5791 5791 5790 5790 5789 5789 5789 5789 5789 5790 5792 5793 5793 5792 5791 5790 5791 5792 5791
5595 5605 5613 5619 5627 5636 5643 5650 5659 5666 5668 5669 5673 5678 5681 5683 5685 5688 5692 5696 5699 5702 5706 5710 5714 5717 5719 5721 5723 5726 5729 5733 5736 5739 5742 5745 5748 5751 5753 5755 5758 5760 5761 5762 5762 5764 5766 5768 5769 5771 5772 5773 5774 5775 5776 5777 5778 5779 5780 5781 5782 5782 5783 5783 5783 5783 5784 5783 5783 5783 5782 5781 5781 5781 5780 5780 5781 5781 5782 5783 5783 5784 5783 5782 5782 5783 5782
5592 5602 5610 5615 5621 5630 5638 5645 5654 5661 5663 5664 5668 5674 5677 5678 5679 5683 5687 5688 5689 5692 5698 5704 5708 5711 5712 5713 5714 5717 5722 5726 5731 5734 5737 5739 5742 5744 5746 5749 5752 5754 5755 5757 5758 5759 5760 5762 5764 5765 5766 5767 5768 5769 5769 5770 5771 5772 5773 5774 5775 5775 5776 5776 5776 5776 5776 5776 5775 5774 5773 5773 5772 5771 5771 5771 5771 5772 5772 5772 5772 5773 5774 5774 5775 5776 5773
5590 5598 5605 5611 5616 5624 5632 5640 5648 5656 5658 5659 5662 5669 5674 5676 5678 5680 5682 5682 5682 5686 5692 5698 5702 5704 5705 5705 5705 5709 5716 5722 5727 5730 5732 5734 5736 5738 5740 5743 5745 5747 5749 5751 5753 5754 5755 5756 5758 5759 5760 5760 5761 5762 5763 5764 5764 5765 5766 5766 5767 5767 5767 5768 5768 5768 5768 5767 5766 5765 5764 5764 5762 5761 5761 5761 5761 5760 5760 5760 5760 5761 5762 5763 5766 5767 5762
5587 5593 5601 5607 5613 5619 5627 5635 5643 5650 5654 5655 5658 5664 5669 5673 5676 5677 5677 5677 5679 5682 5686 5691 5695 5698 5699 5697 5698 5703 5711 5717 5721 5725 5728 5730 5732 5734 5736 5738 5740 5742 5744 5746 5747 5749 5750 5750 5751 5752 5752 5753 5754 5756 5757 5758 5758 5758 5759 5759 5760 5760 5760 5760 5760 5760 5760 5759 5758 5757 5756 5754 5752 5750 5749 5748 5748 5747 5747 5745 5745 5747 5748 5750 5754 5754 5751
5582 5589 5596 5602 5607 5614 5623 5630 5637 5644 5648 5650 5653 5659 5664 5667 5669 5671 5672 5673 5675 5678 5681 5685 5689 5692 5692 5692 5694 5701 5707 5712 5716 5720 5723 5725 5727 5729 5731 5733 5734 5736 5738 5740 5741 5742 5743 5744 5744 5745 5745 5746 5748 5749 5751 5751 5752 5752 5752 5753 5753 5753 5753 5752 5752 5752 5751 5750 5749 5748 5746 5745 5743 5740 5737 5735 5733 5731 5730 5730 5730 5731 5733 5737 5740 5741 5740
5581 5586 5592 5598 5603 5609 5617 5625 5632 5638 5642 5645 5648 5653 5658 5661 5662 5664 5666 5666 5668 5673 5677 5680 5683 5684 5685 5687 5692 5698 5702 5706 5710 5714 5717 5719 5721 5723 5725 5727 5728 5730 5732 5733 5735 5736 5737 5737 5737 5738 5738 5739 5740 5742 5743 5744 5744 5745 5746 5746 5746 5746 5745 5745 5744 5744 5743 5741 5740 5738 5736 5734 5733 5729 5724 5720 5717 5713 5711 5712 5715 5717 5720 5722 5725 5729 5731
5581 5585 5589 5595 5601 5606 5612 5618 5625 5631 5635 5638 5641 5646 5651 5654 5656 5658 5661 5662 5663 5666 5671 5674 5677 5679 5681 5685 5689 5694 5698 5702 5706 5709 5712 5714 5715 5717 5719 5720 5722 5724 5725 5726 5728 5729 5730 5730 5730 5731 5731 5732 5733 5734 5735 5736 5737 5737 5738 5739 5739 5739 5738 5737 5737 5736 5735 5734 5732 5730 5727 5724 5721 5717 5712 5708 5704 5698 5693 5691 5692 5696 5699 5704 5710 5714 5718
5581 5585 5589 5594 5599 5604 5609 5613 5619 5624 5629 5632 5635 5640 5646 5649 5651 5654 5658 5660 5661 5663 5666 5669 5672 5675 5679 5682 5685 5689 5694 5698 5702 5705 5707 5709 5710 5712 5713 5714 5716 5717 5719 5720 5721 5722 5722 5723 5723 5724 5724 5725 5726 5727 5728 5729 5729 5730 5731 5731 5731 5731 5731 5730 5729 5728 5727 5726 5724 5722 5718 5715 5711 5707 5703 5698 5693 5689 5683 5678 5676 5676 5677 5684 5693 5699 5704
5581 5584 5588 5592 5596 5600 5605 5610 5614 5619 5624 5629 5632 5636 5641 5645 5648 5651 5655 5657 5659 5661 5664 5667 5669 5672 5675 5679 5683 5686 5690 5693 5697 5701 5703 5705 5706 5707 5708 5709 5710 5711 5712 5713 5714 5715 5716 5716 5717 5717 5718 5719 5720 5721 5722 5722 5723 5723 5724 5725 5725 5724 5723 5723 5722 5721 5720 5719 5717 5714 5711 5706 5702 5700 5696 5690 5685 5681 5673 5664 5657 5655 5657 5664 5676 5687 5697
5580 5584 5588 5591 5594 5598 5602 5606 5610 5614 5620 5625 5629 5633 5638 5642 5645 5648 5651 5653 5655 5658 5661 5664 5666 5668 5671 5675 5680 5683 5686 5690 5693 5696 5699 5700 5701 5701 5701 5702 5702 5703 5705 5706 5707 5708 5709 5710 5711 5712 5712 5713 5714 5715 5716 5716 5717 5717 5718 5718 5718 5718 5717 5716 5716 5715 5714 5712 5710 5708 5704 5699 5696 5693 5688 5683 5679 5677 5672 5660 5646 5642 5649 5660 5669 5681 5693
5580 5584 5587 5590 5594 5597 5601 5605 5609 5613 5617 5621 5626 5630 5634 5638 5641 5644 5647 5649 5652 5655 5659 5662 5664 5666 5669 5673 5677 5680 5683 5686 5689 5691 5693 5694 5694 5694 5695 5695 5695 5696 5697 5699 5700 5701 5703 5704 5704 5705 5706 5707 5708 5709 5710 5710 5710 5711 5711 5712 5712 5712 5711 5711 5710 5710 5708 5706 5703 5701 5698 5694 5691 5688 5683 5678 5673 5672 5674 5668 5654 5646 5653 5664 5670 5677 5685
5579 5584 5587 5591 5594 5598 5602 5606 5609 5612 5615 5618 5623 5628 5631 5635 5638 5641 5644 5646 5649 5653 5656 5659 5662 5664 5667 5670 5672 5675 5678 5681 5684 5686 5687 5687 5687 5688 5688 5689 5690 5690 5691 5691 5693 5694 5696 5697 5698 5699 5700 5700 5701 5703 5703 5703 5704 5704 5704 5705 5705 5705 5705 5705 5704 5704 5703 5701 5698 5696 5693 5691 5689 5685 5682 5677 5671 5665 5665 5666 5660 5655 5660 5667 5669 5672 5677
5580 5583 5588 5591 5594 5597 5602 5606 5609 5612 5615 5618 5621 5625 5629 5632 5636 5639 5642 5644 5647 5650 5654 5657 5659 5661 5664 5666 5668 5671 5673 5676 5679 5680 5680 5681 5680 5681 5681 5682 5683 5684 5685 5685 5686 5687 5688 5690 5691 5692 5693 5694 5695 5696 5696 5697 5697 5697 5698 5698 5698 5698 5698 5699 5698 5698 5698 5696 5694 5692 5689 5687 5686 5685 5682 5679 5675 5669 5666 5666 5666 5666 5668 5671 5671 5673 5676
5582 5585 5588 5591 5594 5597 5602 5606 5609 5612 5615 5617 5619 5623 5627 5630 5634 5637 5640 5643 5645 5648 5651 5654 5656 5658 5661 5663 5666 5668 5670 5672 5674 5674 5674 5674 5674 5674 5675 5675 5676 5677 5678 5679 5679 5680 5682 5683 5685 5686 5687 5687 5688 5688 5689 5689 5690 5690 5690 5691 5691 5691 5692 5692 5693 5693 5693 5692 5690 5688 5686 5683 5683 5683 5682 5680 5678 5676 5674 5672 5671 5670 5671 5673 5674 5676 5678
5583 5586 5589 5592 5595 5599 5603 5606 5608 5611 5613 5615 5618 5621 5625 5629 5633 5636 5639 5642 5644 5646 5648 5650 5653 5655 5658 5660 5663 5665 5666 5668 5669 5669 5669 5668 5668 5668 5668 5669 5670 5671 5672 5673 5674 5674 5676 5677 5679 5680 5680 5681 5681 5681 5682 5682 5682 5682 5683 5684 5684 5685 5685 5686 5687 5687 5688 5688 5686 5684 5682 5680 5679 5679 5679 5678 5678 5677 5677 5676 5675 5674 5674 5675 5676 5677 5678
5583 5586 5589 5592 5595 5599 5603 5605 5607 5609 5612 5615 5617 5621 5624 5628 5632 5635 5638 5640 5641 5643 5644 5647 5649 5652 5654 5656 5658 5659 5660 5661 5662 5663 5663 5662 5662 5662 5663 5663 5664 5665 5666 5667 5668 5669 5670 5672 5673 5674 5674 5674 5674 5674 5675 5675 5676 5676 5676 5677 5678 5678 5678 5679 5680 5681 5682 5682 5681 5679 5678 5677 5676 5676 5675 5675 5675 5675 5674 5674 5674 5674 5674 5674 5675 5676 5677
5584 5586 5589 5593 5596 5599 5602 5604 5607 5610 5612 5615 5618 5620 5623 5627 5631 5634 5636 5637 5638 5639 5641 5643 5646 5648 5650 5651 5652 5653 5654 5655 5656 5656 5656 5655 5656 5657 5657 5658 5658 5659 5660 5661 5662 5663 5664 5665 5666 5667 5667 5667 5667 5668 5668 5669 5669 5669 5669 5670 5670 5671 5671 5672 5674 5675 5676 5677 5676 5675 5674 5673 5672 5672 5672 5671 5671 5671 5671 5671 5671 5671 5671 5672 5672 5673 5674
5585 5586 5588 5592 5597 5600 5602 5605 5608 5610 5612 5615 5617 5619 5622 5625 5629 5631 5633 5635 5636 5637 5638 5640 5642 5644 5645 5646 5647 5648 5649 5650 5650 5650 5650 5650 5651 5652 5653 5653 5654 5654 5655 5656 5657 5658 5659 5659 5660 5661 5661 5661 5661 5661 5662 5662 5662 5663 5663 5663 5663 5664 5664 5665 5667 5669 5671 5671 5671 5670 5669 5668 5668 5668 5668 5668 5668 5667 5667 5667 5667 5667 5667 5668 5668 5669 5670
5589 5590 5590 5592 5597 5601 5602 5604 5607 5610 5612 5614 5616 5618 5621 5623 5626 5628 5630 5632 5633 5634 5635 5636 5638 5639 5640 5641 5643 5644 5644 5644 5645 5645 5646 5646 5647 5648 5649 5649 5650 5650 5651 5651 5652 5653 5653 5654 5655 5656 5656 5656 5656 5656 5656 5657 5657 5657 5657 5657 5658 5658 5658 5660 5661 5663 5665 5666 5666 5665 5664 5664 5664 5664 5664 5663 5663 5662 5662 5662 5662 5662 5662 5663 5663 5663 5664
5593 5594 5595 5595 5597 5600 5603 5605 5607 5609 5611 5613 5615 5617 5619 5621 5624 5625 5626 5628 5629 5630 5631 5632 5633 5634 5636 5637 5638 5638 5639 5640 5641 5642 5643 5643 5644 5645 5646 5647 5647 5647 5647 5647 5648 5649 5649 5650 5651 5652 5652 5652 5652 5652 5652 5652 5652 5653 5653 5653 5653 5653 5654 5654 5656 5657 5658 5659 5660 5661 5660 5660 5660 5660 5660 5659 5657 5657 5657 5657 5656 5656 5657 5657 5658 5658 5659
5595 5597 5598 5598 5598 5599 5601 5604 5605 5606 5607 5609 5612 5613 5615 5617 5620 5621 5622 5624 5625 5626 5627 5628 5629 5631 5632 5633 5633 5633 5635 5636 5638 5639 5639 5640 5641 5642 5643 5644 5644 5645 5645 5645 5645 5645 5646 5647 5647 5647 5648 5648 5648 5648 5648 5648 5648 5648 5649 5649 5649 5649 5649 5649 5650 5650 5651 5652 5654 5655 5655 5655 5655 5656 5657 5656 5655 5654 5654 5653 5653 5653 5653 5653 5654 5655 5655
5599 5599 5600 5600 5600 5600 5601 5602 5602 5602 5604 5606 5608 5610 5612 5614 5616 5617 5618 5620 5621 5623 5624 5625 5626 5627 5628 5628 5629 5630 5632 5633 5635 5636 5636 5637 5638 5640 5640 5641 5642 5642 5642 5642 5642 5642 5643 5644 5644 5643 5643 5643 5644 5644 5644 5644 5644 5644 5644 5644 5645 5645 5645 5645 5645 5645 5645 5646 5647 5648 5649 5650 5650 5651 5652 5652 5652 5652 5652 5651 5651 5650 5650 5650 5650 5651 5651
5601 5601 5601 5601 5601 5602 5602 5601 5600 5600 5602 5605 5607 5608 5610 5612 5613 5614 5615 5617 5618 5620 5621 5622 5623 5624 5624 5625 5627 5628 5629 5630 5632 5632 5633 5634 5635 5636 5637 5637 5638 5638 5638 5638 5638 5639 5639 5640 5640 5639 5639 5639 5639 5639 5639 5639 5639 5640 5640 5640 5640 5641 5641 5641 5641 5641 5640 5641 5642 5643 5644 5645 5645 5646 5647 5648 5649 5649 5649 5649 5649 5649 5648 5647 5646 5647 5648
5602 5601 5601 5601 5601 5601 5601 5601 5600 5600 5602 5604 5606 5607 5608 5609 5610 5611 5613 5614 5615 5616 5617 5618 5619 5620 5621 5621 5623 5625 5626 5627 5628 5629 5629 5630 5630 5631 5632 5633 5633 5633 5634 5634 5634 5634 5634 5635 5635 5635 5635 5635 5634 5634 5634 5634 5635 5635 5635 5635 5636 5636 5636 5637 5637 5637 5637 5637 5638 5639 5639 5640 5641 5642 5643 5644 5644 5644 5644 5645 5646 5646 5645 5644 5644 5644 5645
5602 5601 5601 5601 5601 5601 5601 5600 5600 5600 5602 5604 5605 5606 5607 5608 5609 5610 5611 5612 5613 5613 5614 5615 5615 5616 5617 5618 5620 5621 5623 5624 5624 5624 5625 5625 5625 5626 5627 5627 5628 5628 5629 5629 5629 5629 5629 5629 5629 5630 5630 5630 5630 5630 5630 5630 5631 5631 5631 5632 5632 5632 5632 5632 5632 5633 5634 5634 5635 5636 5636 5636 5637 5638 5639 5640 5640 5640 5641 5641 5641 5642 5642 5641 5642 5642 5643
5602 5602 5602 5601 5601 5601 5601 5601 5601 5602 5602 5603 5604 5605 5606 5607 5608 5609 5610 5611 5611 5612 5612 5613 5613 5614 5615 5616 5617 5618 5619 5619 5619 5620 5620 5620 5621 5621 5621 5622 5622 5623 5624 5624 5624 5624 5624 5624 5625 5625 5625 5625 5625 5625 5626 5626 5627 5627 5628 5629 5629 5628 5628 5628 5628 5628 5629 5630 5631 5632 5633 5633 5633 5634 5635 5635 5636 5637 5638 5638 5638 5638 5638 5638 5638 5638 5639
5604 5603 5603 5603 5602 5602 5602 5602 5602 5603 5604 5604 5605 5605 5605 5606 5606 5607 5608 5608 5609 5609 5610 5611 5611 5612 5612 5613 5613 5614 5615 5615 5615 5616 5616 5616 5617 5617 5617 5617 5618 5618 5619 5619 5620 5620 5620 5620 5621 5621 5621 5621 5621 5621 5621 5622 5622 5623 5624 5624 5625 5625 5625 5625 5625 5625 5625 5626 5626 5627 5628 5628 5628 5629 5630 5631 5632 5633 5634 5634 5633 5633 5633 5633 5633 5633 5634
5605 5605 5605 5604 5604 5604 5604 5604 5604 5605 5605 5605 5605 5605 5605 5605 5605 5606 5606 5607 5607 5607 5608 5609 5609 5609 5610 5610 5611 5611 5612 5612 5612 5612 5613 5613 5613 5613 5613 5614 5614 5614 5615 5615 5615 5616 5616 5616 5616 5616 5617 5617 5617 5617 5617 5618 5618 5619 5619 5620 5620 5621 5621 5621 5621 5621 5621 5622 5622 5622 5623 5623 5624 5624 5625 5625 5626 5628 5629 5629 5628 5627 5627 5627 5627 5627 5628
5606 5606 5605 5605 5605 5605 5605 5605 5605 5605 5605 5605 5605 5605 5605 5605 5605 5605 5605 5605 5606 5606 5607 5607 5607 5608 5608 5608 5609 5609 5609 5609 5609 5609 5609 5609 5609 5610 5610 5610 5610 5610 5610 5610 5611 5611 5611 5611 5612 5612 5612 5612 5612 5612 5613 5613 5614 5614 5614 5615 5615 5615 5615 5616 5616 5616 5616 5617 5617 5618 5618 5618 5619 5619 5620 5620 5620 5621 5622 5622 5622 5622 5622 5621 5621 5622 5622
5606 5606 5606 5605 5605 5604 5604 5604 5604 5604 5604 5605 5605 5605 5605 5604 5604 5604 5604 5604 5604 5604 5605 5605 5605 5605 5605 5606 5606 5606 5606 5606 5606 5606 5606 5606 5606 5606 5607 5607 5607 5607 5607 5607 5606 5606 5606 5606 5606 5607 5607 5607 5607 5608 5608 5608 5608 5609 5609 5610 5610 5610 5610 5610 5610 5610 5610 5610 5611 5612 5612 5613 5613 5614 5614 5614 5615 5615 5615 5615 5616 5616 5615 5615 5615 5615 5615
5604 5604 5604 5604 5604 5604 5603 5603 5603 5603 5603 5603 5603 5603 5603 5603 5603 5603 5602 5602 5602 5602 5602 5602 5602 5602 5602 5602 5602 5602 5602 5602 5602 5603 5603 5603 5603 5603 5603 5603 5604 5604 5604 5603 5603 5603 5603 5602 5602 5602 5602 5602 5602 5602 5602 5603 5603 5603 5603 5603 5604 5604 5604 5604 5604 5604 5604 5604 5604 5605 5605 5606 5606 5607 5607 5608 5608 5609 5609 5609 5609 5609 5609 5609 5609 5609 5609